Retour au catalogue

COSMOS 1317 DEB

ActifHEO
NORAD 14736·DEBRIS·🇷🇺 Russia

Lancé Oct 31, 1981 depuis Plesetsk Cosmodrome

Loading…

Prochains Passages (prochaines 24 heures)

TLE

FraisSource: Space-Track

Époque: Sep 14, 2026, 04:20 UTC

1 14736U 81108G   26257.18104617  .00000084  00000-0  00000-0 0  9991
2 14736  71.5756 113.1462 4610524 319.1957 263.3725  2.00251187235092

Suivez COSMOS 1317 DEB en temps réel avec AllMySat

Download on the App Store